Location: Arcusa
(42.3167°N, 0.0833°W)
Time: 21:14:20
(UTC+00:00)

STARLINK-1062 - Pass Details

Date: 25 January 2020
Orbit: 549 x 550 km, 53.0° (Epoch: 17 February)

Event Time Altitude Azimuth Distance (km) Brightness Sun altitude
Rises 06:28:48 0° 229° (SW) 2,705 6.8 -9.8°
Reaches altitude 10° 06:31:01 10° 228° (SW) 1,815 6.0 -9.4°
Maximum altitude 06:35:08 81° 142° (SE) 561 3.7 -8.7°
Drops below altitude 10° 06:39:18 10° 55° (NE) 1,827 6.8 -8.0°
Sets 06:41:32 0° 54° (NE) 2,724 7.7 -7.6°
